Regional Weather Roundup
Issued by NWS

Home | Current Version | Previous Version | Text Only | Print | Product List | Glossary On
Versions: 1 2 3 4 5 6 7 8 9 10 11 12 13 14 15 16 17 18 19 20 21 22 23 24 25 26 27 28 29 30 31 32 33 34 35 36 37 38 39 40 41 42 43 44 45 46 47 48 49 50
000
ASUS43 KLMK 230810
RWRKY
NATIONAL WEATHER SERVICE LOUISVILLE KY
300 AM EST THU NOV 23 2017

NOTE "FAIR" INDICATES FEW OR NO CLOUDS BELOW 12,000 FEET
WITH NO SIGNIFICANT WEATHER AND/OR OBSTRUCTIONS TO VISIBILITY.

KYZ001>023-026-027-061>063-070>075-230900-
WESTERN AND SOUTH CENTRAL KENTUCKY

CITY           SKY/WX    TMP DP  RH WIND       PRES   REMARKS
PADUCAH        PTCLDY    24  19  81 CALM      30.22S
HENDERSON      PTCLDY    26  24  92 CALM      30.23S
OWENSBORO      CLOUDY    27  23  85 CALM      30.23S
HOPKINSVILLE   NOT AVBL
BOWLING GREEN  PTCLDY    26  23  88 CALM      30.21S
GLASGOW          N/A     23  22  96 CALM      30.19S FOG
$$

KYZ024-025-028>034-038-045-046-053-230900-
NORTH CENTRAL KENTUCKY

CITY           SKY/WX    TMP DP  RH WIND       PRES   REMARKS
LOUISVILLE/SDF CLOUDY    30  24  78 N3        30.22R
LOUISVILLE/LOU CLOUDY    25  24  96 CALM      30.23R
FORT KNOX      CLOUDY    24  21  87 N6        30.19R WCI  17
$$

KYZ035>037-039>044-047>052-055>060-089>105-230900-
NORTHEAST KENTUCKY

CITY           SKY/WX    TMP DP  RH WIND       PRES   REMARKS
LEXINGTON      CLOUDY    25  19  78 CALM      30.19F
COVINGTON      CLOUDY    24  23  96 CALM      30.20S
FRANKFORT      CLOUDY    23  19  85 CALM      30.18F
$$

KYZ054-064>069-076>088-106>120-230900-
SOUTHEAST KENTUCKY

CITY           SKY/WX    TMP DP  RH WIND       PRES   REMARKS
JACKSON        CLOUDY    29  22  75 NE3       30.15S
LONDON         CLOUDY    27  22  81 N3        30.15F
SOMERSET       CLOUDY    27  21  80 CALM      30.19S
MIDDLESBORO    CLEAR     25  24  95 CALM      30.16F
MONTICELLO     SUNNY     19  17  92 VRB7      30.19S WCI  10
$$




USA.gov is the U.S. government's official web portal to all federal, state and local government web resources and services.